OAL233 LGTS-LFMN

Flight info

Callsign OAL233
Flight time 0h 46m
Altitude 40000
Route TSL UM603 PINDO DCT ENOXA DCT OSDAX DCT DIVKU DCT SUXUB DCT MOPUV DCT ELKAP DCT TOBGA/N0398F300 DCT DOBIM DCT AKUTI R16 KERIT
Aircraft B737/M-SDE2E3FGHIRWXY/LB1

Departure

Time 2026-05-06 17:54
Airport Thessaloniki Macedonia International Airport (LGTS)

Arrival

Time 2026-05-06 18:40
Airport Nice-Côte d'Azur Airport (LFMN)
Time Latitude Longitude Altitude Speed Heading
2026-05-06 17:36 40.52322 22.97576 14 ft 0 kts 43°
2026-05-06 17:45 40.52323 22.97576 14 ft 0 kts 44°
2026-05-06 17:46 40.52320 22.97573 16 ft 3 kts 44°
2026-05-06 17:46 40.52301 22.97548 14 ft 4 kts 44°
2026-05-06 17:46 40.52281 22.97523 14 ft 4 kts 44°
2026-05-06 17:46 40.52262 22.97499 15 ft 4 kts 44°
2026-05-06 17:47 40.52258 22.97494 15 ft 0 kts 44°
2026-05-06 17:49 40.52261 22.97494 15 ft 1 kts 19°
2026-05-06 17:49 40.52294 22.97481 15 ft 9 kts 331°
2026-05-06 17:49 40.52345 22.97387 15 ft 17 kts 298°
2026-05-06 17:50 40.52409 22.97230 17 ft 22 kts 297°
2026-05-06 17:50 40.52530 22.97097 15 ft 25 kts 342°
2026-05-06 17:50 40.52672 22.97045 16 ft 13 kts 332°
2026-05-06 17:50 40.52682 22.96999 17 ft 0 kts 255°
2026-05-06 17:53 40.52682 22.96998 17 ft 0 kts 255°
2026-05-06 17:53 40.52677 22.96974 18 ft 6 kts 255°
2026-05-06 17:53 40.52649 22.96891 16 ft 14 kts 217°
2026-05-06 17:53 40.52530 22.96919 16 ft 29 kts 166°
2026-05-06 17:54 40.52033 22.97077 10 ft 116 kts 167°
2026-05-06 17:54 40.51047 22.97424 239 ft 166 kts 166°
2026-05-06 17:54 40.49839 22.97789 954 ft 190 kts 167°
2026-05-06 17:54 40.48464 22.98218 1334 ft 222 kts 166°
2026-05-06 17:55 40.46857 22.98732 1634 ft 251 kts 166°
2026-05-06 17:55 40.45748 22.99091 2299 ft 245 kts 166°
2026-05-06 17:55 40.44053 22.99606 3096 ft 255 kts 168°
2026-05-06 17:55 40.42293 23.00120 4019 ft 262 kts 168°
2026-05-06 17:56 40.40505 23.00641 5081 ft 266 kts 168°
2026-05-06 17:56 40.38678 23.01175 6064 ft 272 kts 169°
2026-05-06 17:56 40.36807 23.01723 6994 ft 278 kts 169°
2026-05-06 17:56 40.34902 23.02284 7972 ft 282 kts 169°
2026-05-06 17:57 40.32971 23.02852 8943 ft 286 kts 169°
2026-05-06 17:57 40.31015 23.03427 9882 ft 291 kts 169°
2026-05-06 17:57 40.29016 23.03999 10696 ft 297 kts 173°
2026-05-06 17:57 40.26900 23.03851 10982 ft 319 kts 201°
2026-05-06 17:58 40.24975 23.02325 11410 ft 332 kts 226°
2026-05-06 17:58 40.23647 22.99845 12180 ft 336 kts 248°
2026-05-06 17:58 40.23128 22.96870 13052 ft 338 kts 270°
2026-05-06 17:58 40.23523 22.93852 13928 ft 340 kts 292°
2026-05-06 17:59 40.24799 22.91248 14714 ft 344 kts 315°
2026-05-06 17:59 40.26790 22.89520 15553 ft 348 kts 338°
2026-05-06 17:59 40.29153 22.89020 16354 ft 356 kts
2026-05-06 17:59 40.31582 22.89816 17092 ft 366 kts 21°
2026-05-06 18:00 40.33883 22.91312 17853 ft 372 kts 25°
2026-05-06 18:00 40.36205 22.92844 18524 ft 375 kts 17°
2026-05-06 18:00 40.38742 22.93413 19149 ft 369 kts 354°
2026-05-06 18:00 40.41210 22.92680 19888 ft 363 kts 334°
2026-05-06 18:01 40.43306 22.90892 20591 ft 361 kts 315°
2026-05-06 18:01 40.44839 22.88286 21251 ft 363 kts 298°
2026-05-06 18:01 40.45709 22.85166 21886 ft 368 kts 281°
2026-05-06 18:01 40.45888 22.81785 22535 ft 373 kts 273°
2026-05-06 18:02 40.45894 22.78359 23154 ft 376 kts 272°
2026-05-06 18:02 40.45862 22.74905 23738 ft 379 kts 271°
2026-05-06 18:02 40.45831 22.71427 24251 ft 382 kts 272°
2026-05-06 18:02 40.45811 22.67968 24752 ft 385 kts 272°
2026-05-06 18:03 40.45802 22.64447 25244 ft 388 kts 272°
2026-05-06 18:03 40.45800 22.60895 25726 ft 390 kts 272°
2026-05-06 18:03 40.45801 22.57316 26198 ft 393 kts 272°
2026-05-06 18:03 40.45802 22.53710 26665 ft 396 kts 272°
2026-05-06 18:04 40.45804 22.50096 27108 ft 399 kts 272°
2026-05-06 18:04 40.45803 22.46462 27549 ft 402 kts 272°
2026-05-06 18:04 40.45801 22.42779 28060 ft 403 kts 272°
2026-05-06 18:04 40.45797 22.39091 28538 ft 405 kts 272°
2026-05-06 18:05 40.45791 22.35372 28945 ft 408 kts 272°
2026-05-06 18:05 40.45783 22.31623 29330 ft 412 kts 272°
2026-05-06 18:05 40.45774 22.27848 29736 ft 414 kts 272°
2026-05-06 18:05 40.45765 22.24054 30155 ft 416 kts 272°
2026-05-06 18:06 40.45753 22.20292 30481 ft 418 kts 272°
2026-05-06 18:06 40.45741 22.16472 30801 ft 420 kts 272°
2026-05-06 18:06 40.45727 22.12620 31123 ft 423 kts 272°
2026-05-06 18:06 40.45712 22.08757 31587 ft 421 kts 272°
2026-05-06 18:07 40.45695 22.04942 32195 ft 416 kts 272°
2026-05-06 18:07 40.45676 22.01155 32661 ft 415 kts 272°
2026-05-06 18:07 40.45658 21.97341 32901 ft 419 kts 272°
2026-05-06 18:07 40.45639 21.93517 33291 ft 419 kts 272°
2026-05-06 18:08 40.45618 21.89708 33838 ft 415 kts 272°
2026-05-06 18:08 40.45595 21.85939 34332 ft 411 kts 272°
2026-05-06 18:08 40.45572 21.82178 34647 ft 412 kts 272°
2026-05-06 18:08 40.45548 21.78417 34938 ft 411 kts 272°
2026-05-06 18:09 40.45522 21.74700 35493 ft 405 kts 272°
2026-05-06 18:09 40.45496 21.71010 35819 ft 404 kts 271°
2026-05-06 18:09 40.45469 21.67308 36019 ft 407 kts 271°
2026-05-06 18:09 40.45440 21.63585 36257 ft 408 kts 271°
2026-05-06 18:10 40.45411 21.59863 36581 ft 406 kts 271°
2026-05-06 18:10 40.45379 21.56209 36878 ft 404 kts 271°
2026-05-06 18:10 40.45347 21.52525 37169 ft 404 kts 271°
2026-05-06 18:10 40.45314 21.48828 37391 ft 405 kts 271°
2026-05-06 18:11 40.45280 21.45125 37594 ft 406 kts 270°
2026-05-06 18:11 40.45244 21.41383 37875 ft 405 kts 270°
2026-05-06 18:11 40.45845 21.11485 38378 ft 426 kts 279°
2026-05-06 18:11 40.50805 20.80754 38071 ft 429 kts 285°
2026-05-06 18:12 40.58222 20.51383 37963 ft 417 kts 289°
2026-05-06 18:12 40.65308 20.22650 37975 ft 406 kts 286°
2026-05-06 18:12 40.71388 19.94442 38009 ft 395 kts 286°
2026-05-06 18:12 40.77537 19.66892 38032 ft 388 kts 287°
2026-05-06 18:13 40.89570 19.12552 38093 ft 387 kts 286°
2026-05-06 18:13 41.01399 18.57426 38117 ft 397 kts 285°
2026-05-06 18:14 41.04169 18.44182 38036 ft 399 kts 284°
2026-05-06 18:14 41.13217 18.00670 37924 ft 386 kts 284°
2026-05-06 18:15 41.23564 17.46344 37996 ft 374 kts 279°
2026-05-06 18:15 41.31036 16.91535 38013 ft 381 kts 279°
2026-05-06 18:16 41.39755 16.35090 37989 ft 396 kts 283°
2026-05-06 18:16 41.50912 15.78753 37936 ft 388 kts 281°
2026-05-06 18:17 41.63406 15.24484 37929 ft 379 kts 282°
2026-05-06 18:17 41.75060 14.70129 38010 ft 384 kts 281°
2026-05-06 18:18 41.86964 14.13970 38011 ft 399 kts 281°
2026-05-06 18:18 41.99643 13.57329 37948 ft 398 kts 281°
2026-05-06 18:19 42.12874 13.00863 37919 ft 395 kts 285°
2026-05-06 18:19 42.27624 12.45332 38052 ft 395 kts 283°
2026-05-06 18:20 42.42046 11.88115 38075 ft 410 kts 283°
2026-05-06 18:20 42.49320 11.58821 37961 ft 411 kts 283°
2026-05-06 18:20 42.56504 11.29460 37930 ft 407 kts 283°
2026-05-06 18:21 42.70374 10.71733 37884 ft 395 kts 282°
2026-05-06 18:21 42.81006 10.24179 37945 ft 390 kts 280°
2026-05-06 18:22 42.82544 10.17002 37937 ft 399 kts 280°
2026-05-06 18:22 42.84130 10.09692 37927 ft 403 kts 281°
2026-05-06 18:23 42.85716 10.02392 37922 ft 404 kts 280°
2026-05-06 18:23 42.87303 9.95063 37909 ft 398 kts 280°
2026-05-06 18:24 42.88073 9.91509 37913 ft 383 kts 280°
2026-05-06 18:24 42.88914 9.88119 37902 ft 373 kts 286°
2026-05-06 18:24 42.91494 9.82156 37945 ft 358 kts 298°
2026-05-06 18:25 42.94473 9.76707 37944 ft 364 kts 298°
2026-05-06 18:25 42.95862 9.73801 37650 ft 366 kts 289°
2026-05-06 18:25 42.96979 9.70665 36967 ft 370 kts 287°
2026-05-06 18:26 42.98070 9.67417 35932 ft 383 kts 287°
2026-05-06 18:26 42.99187 9.64035 34783 ft 399 kts 287°
2026-05-06 18:26 43.00352 9.60522 33707 ft 412 kts 287°
2026-05-06 18:26 43.01505 9.57076 32634 ft 421 kts 287°
2026-05-06 18:27 43.02739 9.53418 31619 ft 427 kts 288°
2026-05-06 18:27 43.03996 9.49712 30706 ft 431 kts 288°
2026-05-06 18:27 43.05261 9.45989 29877 ft 431 kts 288°
2026-05-06 18:27 43.06524 9.42271 28928 ft 430 kts 288°
2026-05-06 18:28 43.08199 9.37319 27488 ft 433 kts 288°
2026-05-06 18:28 43.18244 9.07123 19019 ft 426 kts 290°
2026-05-06 18:28 43.27652 8.79158 12573 ft 380 kts 291°
2026-05-06 18:28 43.33944 8.60029 9346 ft 341 kts 292°
2026-05-06 18:29 43.34896 8.57133 9596 ft 332 kts 291°
2026-05-06 18:29 43.35854 8.54115 9763 ft 356 kts 291°
2026-05-06 18:29 43.39239 8.43253 9866 ft 368 kts 290°
2026-05-06 18:29 43.47245 8.17650 9753 ft 356 kts 290°
2026-05-06 18:30 43.52867 7.99530 9803 ft 350 kts 290°
2026-05-06 18:30 43.53820 7.96465 9806 ft 344 kts 290°
2026-05-06 18:30 43.54727 7.93525 9633 ft 321 kts 290°
2026-05-06 18:30 43.55566 7.90802 9437 ft 298 kts 291°
2026-05-06 18:31 43.56343 7.88271 9290 ft 276 kts 290°
2026-05-06 18:31 43.57081 7.85866 8900 ft 273 kts 290°
2026-05-06 18:31 43.57818 7.83453 8552 ft 271 kts 290°
2026-05-06 18:31 43.58539 7.81095 8344 ft 264 kts 290°
2026-05-06 18:32 43.59253 7.78761 7983 ft 264 kts 290°
2026-05-06 18:32 43.59962 7.76439 7587 ft 260 kts 290°
2026-05-06 18:32 43.60663 7.74145 7021 ft 260 kts 290°
2026-05-06 18:32 43.61366 7.71842 6461 ft 260 kts 290°
2026-05-06 18:33 43.62060 7.69566 5989 ft 256 kts 290°
2026-05-06 18:33 43.62669 7.67277 5452 ft 252 kts 284°
2026-05-06 18:33 43.63160 7.64960 4902 ft 251 kts 284°
2026-05-06 18:33 43.63617 7.62629 4401 ft 249 kts 283°
2026-05-06 18:34 43.64060 7.60363 3917 ft 245 kts 284°
2026-05-06 18:34 43.64496 7.58069 3294 ft 249 kts 283°
2026-05-06 18:34 43.64904 7.55730 2910 ft 248 kts 281°
2026-05-06 18:34 43.65262 7.53486 2737 ft 231 kts 281°
2026-05-06 18:35 43.65589 7.51388 2585 ft 217 kts 281°
2026-05-06 18:35 43.65893 7.49425 2500 ft 200 kts 281°
2026-05-06 18:35 43.66164 7.47639 2495 ft 182 kts 281°
2026-05-06 18:35 43.66411 7.45976 2496 ft 172 kts 281°
2026-05-06 18:36 43.66655 7.44379 2534 ft 168 kts 281°
2026-05-06 18:36 43.66900 7.42808 2546 ft 167 kts 281°
2026-05-06 18:36 43.67148 7.41245 2520 ft 169 kts 281°
2026-05-06 18:36 43.67398 7.39694 2608 ft 166 kts 282°
2026-05-06 18:37 43.67664 7.38100 2649 ft 172 kts 283°
2026-05-06 18:37 43.67864 7.37009 2559 ft 174 kts 283°
2026-05-06 18:37 43.68257 7.34910 2200 ft 166 kts 282°
2026-05-06 18:37 43.68513 7.33384 1870 ft 157 kts 280°
2026-05-06 18:38 43.68745 7.32038 1847 ft 138 kts 284°
2026-05-06 18:38 43.69014 7.30719 1704 ft 146 kts 284°
2026-05-06 18:38 43.69271 7.29367 1518 ft 145 kts 280°
2026-05-06 18:38 43.69425 7.28006 1350 ft 141 kts 271°
2026-05-06 18:39 43.69270 7.26703 1132 ft 142 kts 249°
2026-05-06 18:39 43.68803 7.25475 661 ft 144 kts 232°
2026-05-06 18:39 43.68156 7.24502 464 ft 135 kts 225°
2026-05-06 18:40 43.66836 7.22688 46 ft 130 kts 225°
2026-05-06 18:40 43.66324 7.21972 25 ft 84 kts 225°
2026-05-06 18:40 43.66158 7.21727 21 ft 9 kts 238°
2026-05-06 18:40 43.66181 7.21637 21 ft 14 kts 314°
2026-05-06 18:41 43.66252 7.21524 21 ft 18 kts 312°
2026-05-06 18:41 43.66289 7.21363 21 ft 21 kts 236°
2026-05-06 18:41 43.66220 7.21258 21 ft 23 kts 225°
2026-05-06 18:41 43.66100 7.21091 22 ft 26 kts 225°
2026-05-06 18:42 43.65972 7.20909 21 ft 26 kts 243°
2026-05-06 18:42 43.65949 7.20807 21 ft 4 kts 260°
2026-05-06 18:42 43.65954 7.20752 21 ft 7 kts 281°
2026-05-06 18:42 43.65956 7.20736 21 ft 0 kts 281°